TimeCDT,TemperatureF,Dew PointF,Humidity,Sea Level PressureIn,VisibilityMPH,Wind Direction,Wind SpeedMPH,Gust SpeedMPH,PrecipitationIn,Events,Conditions,WindDirDegrees,DateUTC
12:52 AM,26.1,19.9,78,30.30,-9999.0,SW,6.9,-,N/A,,Unknown,230,2012-10-07 05:52:00
1:52 AM,27.0,19.9,75,30.27,-9999.0,SSW,4.6,-,N/A,,Unknown,200,2012-10-07 06:52:00
2:52 AM,26.1,19.0,75,30.25,-9999.0,SSW,3.5,-,N/A,,Unknown,210,2012-10-07 07:52:00
3:52 AM,27.0,19.0,72,30.22,-9999.0,WSW,3.5,-,N/A,,Unknown,250,2012-10-07 08:52:00
4:52 AM,26.1,18.0,71,30.22,-9999.0,SW,3.5,-,N/A,,Unknown,220,2012-10-07 09:52:00
5:52 AM,28.0,19.9,72,30.20,-9999.0,Calm,Calm,-,N/A,,Unknown,0,2012-10-07 10:52:00
6:52 AM,26.1,19.9,78,30.19,-9999.0,South,3.5,-,N/A,,Unknown,190,2012-10-07 11:52:00
7:52 AM,23.0,18.0,81,30.17,-9999.0,SW,8.1,-,N/A,,Unknown,220,2012-10-07 12:52:00
8:52 AM,34.0,26.1,73,30.15,-9999.0,SW,6.9,-,N/A,,Unknown,230,2012-10-07 13:52:00
9:52 AM,39.0,26.1,60,30.14,-9999.0,SW,13.8,-,N/A,,Unknown,230,2012-10-07 14:52:00
10:52 AM,44.1,25.0,47,30.11,-9999.0,WSW,11.5,-,N/A,,Unknown,240,2012-10-07 15:52:00
11:52 AM,48.9,25.0,39,30.08,-9999.0,SSW,9.2,-,N/A,,Unknown,210,2012-10-07 16:52:00
12:52 PM,54.0,18.0,24,30.05,-9999.0,SW,11.5,19.6,N/A,,Unknown,230,2012-10-07 17:52:00
1:52 PM,57.0,14.0,18,30.00,-9999.0,West,11.5,-,N/A,,Unknown,260,2012-10-07 18:52:00
2:52 PM,60.1,16.0,18,29.97,-9999.0,West,17.3,26.5,N/A,,Unknown,280,2012-10-07 19:52:00
3:52 PM,60.1,21.0,22,29.94,-9999.0,WNW,11.5,24.2,N/A,,Unknown,300,2012-10-07 20:52:00
4:52 PM,62.1,25.0,24,29.93,-9999.0,WNW,15.0,25.3,N/A,,Unknown,290,2012-10-07 21:52:00
5:52 PM,60.1,24.1,25,29.92,-9999.0,WNW,5.8,-,N/A,,Unknown,290,2012-10-07 22:52:00
6:52 PM,55.9,25.0,30,29.92,-9999.0,Calm,Calm,-,N/A,,Unknown,0,2012-10-07 23:52:00
7:52 PM,50.0,25.0,38,29.93,-9999.0,Calm,Calm,-,N/A,,Unknown,0,2012-10-08 00:52:00
8:52 PM,46.0,24.1,42,29.91,-9999.0,South,5.8,-,N/A,,Unknown,170,2012-10-08 01:52:00
9:52 PM,43.0,23.0,45,29.91,-9999.0,South,4.6,-,N/A,,Unknown,190,2012-10-08 02:52:00
10:52 PM,41.0,25.0,53,29.88,-9999.0,SW,8.1,-,N/A,,Unknown,230,2012-10-08 03:52:00
11:52 PM,39.9,26.1,58,29.87,-9999.0,SW,8.1,-,N/A,,Unknown,220,2012-10-08 04:52:00